Weather History for KCAK - October, 2011

Change the Weather History Date:

Wednesday, October 12, 2011

  Actual Average Record
Temperature  
Mean Temperature 60 °F 53 °F  
Max Temperature 63 °F 62 °F 86 °F (1928)
Min Temperature 56 °F 44 °F 27 °F (1906)
Degree Days  
Heating Degree Days 5 12  
Month to date heating degree days 77 126  
Since 1 July heating degree days 175 265  
Cooling Degree Days 0 0  
Month to date cooling degree days 1 3  
Year to date cooling degree days 911 649  
Growing Degree Days 9 (Base 50)    
Moisture  
Dew Point 55 °F    
Average Humidity 80    
Maximum Humidity 93    
Minimum Humidity 67    
Precipitation  
Precipitation 0.34 in 0.09 in 1.60 in (1990)
Month to date precipitation 0.96 1.11  
Year to date precipitation 44.71 31.76  
Snow  
Snow 0.00 in 0.00 in - ()
Month to date snowfall 0.0 0.0  
Since 1 July snowfall 0.0 0.0  
Since 1 September snowfall 0.0 0.0  
Snow Depth 0.00 in    
Sea Level Pressure  
Sea Level Pressure 29.90 in    
Wind  
Wind Speed 8 mph (SE)    
Max Wind Speed 17 mph    
Max Gust Speed 21 mph    
Visibility 4 miles    
Events Rain    
T = Trace of Precipitation, MM = Missing Value Source: NWS Daily Summary

Daily Weather History Graph

Daily Weather History Graph

Search for Another Location

Airport or City:

Trip Planner

Search our weather history database for the weather conditions in past years. The results will help you decide how hot, cold, wet, or windy it might be!

Date:

Astronomy

Oct. 12, 2011 Rise Set
Actual Time 7:33 AM EDT 6:50 PM EDT
Civil Twilight 7:06 AM EDT 7:17 PM EDT
Nautical Twilight 6:34 AM EDT 7:49 PM EDT
Astronomical Twilight 6:02 AM EDT 8:21 PM EDT
Moon 6:50 PM EDT (10/12) 8:07 AM EDT (10/12)
Length of Visible Light 12h 11m
Length of Day
11h 16m
Full, 100% of the Moon is Illuminated
Oct 12
Full
Oct 19
Last Quarter
Oct 26
New
Nov 2
First Quarter
Nov 10
Full

Hourly Weather History & Observations

Time (EDT) Temp. Dew Point Humidity Pressure Visibility Wind Dir Wind Speed Gust Speed Precip Events Conditions
12:51 AM 62.1 °F 52.0 °F 70% 30.00 in 10.0 mi SE 5.8 mph - N/A   Overcast
1:51 AM 63.0 °F 52.0 °F 67% 29.99 in 10.0 mi SE 8.1 mph - N/A   Overcast
2:51 AM 63.0 °F 52.0 °F 67% 29.99 in 10.0 mi SSE 9.2 mph - N/A   Overcast
3:51 AM 62.1 °F 53.1 °F 72% 29.99 in 8.0 mi SE 16.1 mph 20.7 mph 0.00 in Rain Light Rain
4:51 AM 60.1 °F 53.1 °F 78% 29.99 in 8.0 mi SSE 9.2 mph - 0.00 in Rain Light Rain
5:51 AM 59.0 °F 54.0 °F 83% 29.99 in 7.0 mi Calm Calm - 0.01 in Rain Light Rain
6:51 AM 57.2 °F 53.6 °F 88% 29.99 in 4.0 mi East 4.6 mph - N/A Rain Light Rain
7:20 AM 57.2 °F 53.6 °F 88% 29.99 in 4.0 mi East 3.5 mph - 0.02 in Rain Light Rain
7:44 AM 57.2 °F 53.6 °F 88% 29.98 in 2.5 mi NE 4.6 mph - N/A Rain Light Rain
7:51 AM 57.0 °F 54.0 °F 89% 29.97 in 2.5 mi NE 5.8 mph - 0.04 in Rain Light Rain
8:35 AM 57.2 °F 55.4 °F 94% 29.97 in 2.5 mi ENE 6.9 mph - 0.01 in   Overcast
8:51 AM 57.9 °F 55.0 °F 90% 29.96 in 1.5 mi East 6.9 mph - 0.02 in Rain Light Rain
9:14 AM 57.2 °F 55.4 °F 94% 29.96 in 1.0 mi East 9.2 mph - 0.02 in Rain Light Rain
9:51 AM 57.9 °F 55.0 °F 90% 29.95 in 1.5 mi East 12.7 mph 20.7 mph 0.05 in Rain Light Rain
10:51 AM 55.9 °F 53.1 °F 90% 29.94 in 6.0 mi ENE 12.7 mph - 0.06 in Rain Light Rain
11:24 AM 55.4 °F 53.6 °F 94% 29.92 in 2.5 mi East 10.4 mph - 0.01 in Rain Light Rain
11:51 AM 55.9 °F 53.1 °F 90% 29.90 in 2.5 mi East 11.5 mph - 0.01 in Rain Light Rain
12:51 PM 57.0 °F 53.1 °F 87% 29.88 in 2.5 mi East 11.5 mph - 0.01 in Rain Light Rain
1:51 PM 57.0 °F 54.0 °F 89% 29.85 in 4.0 mi East 8.1 mph - 0.01 in Rain Light Rain
2:09 PM 57.2 °F 53.6 °F 88% 29.85 in 2.5 mi ESE 6.9 mph - 0.00 in Rain Light Rain
2:51 PM 57.0 °F 55.0 °F 93% 29.83 in 2.0 mi ESE 6.9 mph - 0.04 in Rain Light Rain
3:51 PM 57.9 °F 55.9 °F 93% 29.82 in 1.5 mi SSE 4.6 mph - 0.01 in Rain Light Rain
4:51 PM 57.9 °F 55.9 °F 93% 29.80 in 1.5 mi SSE 5.8 mph - 0.03 in   Overcast
5:51 PM 59.0 °F 57.0 °F 93% 29.80 in 1.0 mi South 5.8 mph - 0.02 in Rain Light Rain
6:29 PM 59.0 °F 57.2 °F 94% 29.80 in 1.2 mi South 5.8 mph - 0.00 in   Overcast
6:32 PM 59.0 °F 57.2 °F 94% 29.80 in 3.0 mi South 5.8 mph - 0.00 in   Overcast
6:51 PM 59.0 °F 57.2 °F 94% 29.80 in 3.0 mi South 4.6 mph - N/A   Overcast
7:51 PM 59.0 °F 55.9 °F 90% 29.80 in 3.0 mi South 6.9 mph - N/A   Overcast
8:51 PM 59.0 °F 57.0 °F 93% 29.79 in 4.0 mi South 5.8 mph - N/A   Overcast
9:51 PM 57.9 °F 55.9 °F 93% 29.80 in 4.0 mi South 6.9 mph - N/A   Overcast
10:51 PM 57.9 °F 55.9 °F 93% 29.79 in 3.0 mi SSW 5.8 mph - N/A   Overcast
11:51 PM 57.9 °F 55.9 °F 93% 29.78 in 3.0 mi SSW 4.6 mph - N/A   Overcast